Flag for US Virgin Islands Weather past 2 weeks in Christiansted, US Virgin Islands

Now
85 °F

Scattered clouds.


Feels Like: 95 °F
Forecast: 80 / 85 °F
Wind: 25 mph from East

Location: Christiansted / Henry E. Rohlsen Airport - Saint Croix

Current Time: Aug 30, 2014 at 2:47:40 PM

Latest Report: Aug 30, 2014 at 1:53 PM


Visibility: 6 mi

Pressure: 30.03 "Hg

Humidity: 77%

Dew point: 77 °F

Location of ChristianstedLocation

Historic Weather in Christiansted — Graph

°F

Christiansted temperature yesterday

Maximum temperature yesterday: 87 °F (at 10:53 AM)
Minimum temperature yesterday: 73 °F (at 1:53 AM)
Average temperature yesterday: 79 °F

Past Weeks' High & Low Weather Summary

 TemperatureHumidityPressure
High90 °F (Aug 19, 12:53 PM)100% (Aug 22, 10:16 AM)30.08 "Hg (Aug 22, 10:16 AM)
Low73 °F (Aug 29, 1:53 AM)57% (Aug 20, 2:53 PM)29.82 "Hg (Aug 22, 4:53 AM)
Average82 °F80%29.97 "Hg
* Reported Aug 15 1:53 PM — Aug 30 11:53 AM, Christiansted, Weather by CustomWeather, © 2014

Note: Actual official high and low records may vary slightly from our data, if they occured in-between our weather recording intervals... More about our weather records

Advertising

Christiansted weather history for previous 24 hours

 ConditionsComfort  
Time TempWeatherWind HumidityBarometerVisibility
11:53 AM
Aug 30
80 °FLight rain. Scattered clouds.10 mph85%30.08 "Hg7 mi
9:53 AM83 °FLight rain. Scattered clouds.7 mph79%30.07 "Hg10 mi
8:53 AM85 °FScattered clouds.13 mph72%30.06 "Hg10 mi
6:53 AM78 °FPassing clouds.6 mph87%30.03 "Hg10 mi
4:53 AM77 °FClear.5 mph85%30.01 "Hg10 mi
2:53 AM77 °FPassing clouds.6 mph90%30.02 "Hg10 mi
1:53 AM77 °FClear.5 mph90%30.03 "Hg10 mi
12:53 AM77 °FClear.3 mph90%30.05 "Hg10 mi
11:53 PM
Aug 29
77 °FPassing clouds.5 mph90%30.06 "Hg10 mi
10:53 PM77 °FPassing clouds.5 mph90%30.06 "Hg10 mi
9:53 PM78 °FClear.3 mph87%30.05 "Hg10 mi
8:53 PM78 °FClear.5 mph87%30.04 "Hg10 mi
5:53 PM81 °FScattered clouds.7 mph82%29.99 "Hg10 mi
4:53 PM82 °FScattered clouds.9 mph79%29.99 "Hg10 mi
2:53 PM80 °FRain. Fog.No wind87%29.99 "Hg6 mi
2:46 PM81 °FHeavy rain. Fog.5 mph84%30.00 "Hg1 mi
Weather by CustomWeather, © 2014

See weather overviewHow to use our weather pages